DRAGON CRS-11 DEB

Last updated on June 20, 2017, 12:15 a.m. UTC

1 42746U 17030C   17158.18639517  .03496503  11855-4  15989-2 0  9994
2 42746  51.6432  87.1411 0062650  71.0341 350.3063 16.16161590   526

Satellite is not in orbit.